World > North America > United States > Wisconsin

Mellen, Wisconsin Regional Weather

Lat: 46.32N, Lon: 90.66W
Wx Zone: WIZ003
Warning FLW WEATHER ALERT - (More Info. Click Here) Warning
Feedback

Mellen, WI Regional Weather

Expires:201908180800;;815466
ASUS43 KMKX 180721
RWRWI 

WISCONSIN REGIONAL WEATHER ROUNDUP
NATIONAL WEATHER SERVICE MILWAUKEE/SULLIVAN WI
200 AM CDT SUN AUG 18 2019

NOTE: "FAIR" INDICATES FEW OR NO CLOUDS BELOW 12,000 FEET WITH NO
SIGNIFICANT WEATHER AND/OR OBSTRUCTIONS TO VISIBILITY.


WIZ003>005-009-010-017-018-180800-
NORTH CENTRAL WISCONSIN
  
CITY           SKY/WX    TMP DP  RH WIND       PRES   REMARKS
MANITOWISH WTR FAIR      61  61 100 SE6       29.79F                  
ARBOR VITAE    FAIR      64  61  89 S6        29.80F                  
WOODRUFF       FAIR      64  61  89 S6        29.80F                  
RHINELANDER    FAIR      63  59  87 S3        29.83F                  
EAGLE RIVER    FAIR      60  60 100 S5        29.82R                  
LAND O LAKES   FAIR      60  58  94 CALM      29.84R                  
PHILLIPS       FAIR      62  62  99 S5        29.78F                  
TOMAHAWK       MOCLDY    59  58  97 CALM      29.81F                  
MEDFORD        CLOUDY    62  60  94 S7        29.79S                  
MERRILL        FAIR      62  62  99 SE5       29.80S                  
$$
 

SKY/WX - Weather  TMP - Temperature  DP - Dew Point  RH - Relative Humidity
WIND - Wind Direction/Speed PRES - Barometric Pressure VSB - Visibility
WCI - Wind Chill Index E13G22 Wind - East Wind 13 mph/Gusts of 22 mph